sat.trackr.live / text

‹ back to catalog

STARLINK-4073

NORAD 52672 · 2022-053S

PAYLOAD ACTIVE UNKNOWN

§ Identity

Operator
Country
US
Launch date
2022-05-18
Launch site
AFETR
Launch vehicle
Mass (kg)
RCS (m²)

Purposes: comms

External: N2YO · Heavens-Above · Gunter

§ Orbital elements

Epoch: 2026-05-25T02:17:28.497408Z

Period
95.44 min
Inclination
53.2129°
Eccentricity
0.0001402
Mean motion
15.08835634 rev/d
Perigee alt
538.8 km
Apogee alt
540.7 km
Semi-major
6,917.9 km
B*
2.0706e-5
RAAN
171.1213°
Arg perigee
81.4580°
Mean anomaly
278.6571°
Rev number
22,257

§ Raw data

STARLINK-40731 52672U 22053S   26145.09546872  .00000042  00000+0  20706-4 0  99972 52672  53.2129 171.1213 0001402  81.4580 278.6571 15.08835634222572

JSON: /api/v1/satellites/52672 · /tle

For live sub-satellite position, see the globe view (requires WebGL).

§ Visibility from observer

Set your observer location to see the next 7 days of passes ≥ 10°. The values pass through the URL so the page stays shareable.

No JS? Fill the form by hand. The geolocation button needs JavaScript.